Time,TemperatureF,DewpointF,PressureIn,WindDirection,WindDirectionDegrees,WindSpeedMPH,WindSpeedGustMPH,Humidity,HourlyPrecipIn,Conditions,Clouds,dailyrainin,SoftwareType,DateUTC
2013-05-11 00:05:00,44.7,44.0,29.89,West,280,3.0,9.0,96,0.00,,,0.00,weatherlink.com 1.10,2013-05-11 04:05:00,
2013-05-11 00:20:00,44.6,44.0,29.90,NW,313,4.0,7.0,96,0.00,,,0.00,weatherlink.com 1.10,2013-05-11 04:20:00,
2013-05-11 00:35:00,44.6,44.0,29.89,WNW,295,2.0,8.0,96,0.00,,,0.00,weatherlink.com 1.10,2013-05-11 04:35:00,
2013-05-11 00:50:00,44.4,43.0,29.89,WNW,293,5.0,7.0,96,0.00,,,0.00,weatherlink.com 1.10,2013-05-11 04:50:00,
2013-05-11 01:05:00,44.3,43.0,29.89,WNW,293,4.0,6.0,96,0.00,,,0.00,weatherlink.com 1.10,2013-05-11 05:05:00,
2013-05-11 01:20:00,44.4,43.0,29.89,WSW,257,3.0,7.0,96,0.00,,,0.00,weatherlink.com 1.10,2013-05-11 05:20:00,
2013-05-11 01:35:00,44.4,43.0,29.90,WNW,291,4.0,7.0,96,0.00,,,0.00,weatherlink.com 1.10,2013-05-11 05:35:00,
2013-05-11 01:50:00,44.4,43.0,29.90,WNW,293,3.0,7.0,96,0.00,,,0.00,weatherlink.com 1.10,2013-05-11 05:50:00,
2013-05-11 02:05:00,44.5,44.0,29.89,WNW,290,2.0,6.0,96,0.00,,,0.00,weatherlink.com 1.10,2013-05-11 06:05:00,
2013-05-11 02:20:00,44.7,44.0,29.90,West,281,3.0,7.0,96,0.00,,,0.00,weatherlink.com 1.10,2013-05-11 06:20:00,
2013-05-11 02:35:00,44.6,44.0,29.90,West,264,1.0,6.0,96,0.00,,,0.00,weatherlink.com 1.10,2013-05-11 06:35:00,
2013-05-11 02:50:00,44.6,44.0,29.90,West,280,2.0,5.0,96,0.00,,,0.00,weatherlink.com 1.10,2013-05-11 06:50:00,
2013-05-11 03:05:00,44.5,44.0,29.91,West,281,3.0,6.0,96,0.00,,,0.00,weatherlink.com 1.10,2013-05-11 07:05:00,
2013-05-11 03:20:00,44.5,44.0,29.91,West,276,2.0,6.0,96,0.00,,,0.00,weatherlink.com 1.10,2013-05-11 07:20:00,
2013-05-11 03:35:00,44.5,44.0,29.92,West,281,2.0,6.0,96,0.00,,,0.00,weatherlink.com 1.10,2013-05-11 07:35:00,
2013-05-11 03:50:00,44.6,44.0,29.91,West,269,4.0,7.0,96,0.00,,,0.00,weatherlink.com 1.10,2013-05-11 07:50:00,
2013-05-11 04:05:00,44.6,44.0,29.92,WNW,283,6.0,7.0,96,0.00,,,0.00,weatherlink.com 1.10,2013-05-11 08:05:00,
2013-05-11 04:20:00,44.7,44.0,29.92,West,270,1.0,6.0,96,0.00,,,0.00,weatherlink.com 1.10,2013-05-11 08:20:00,
2013-05-11 04:35:00,44.7,44.0,29.91,West,281,4.0,5.0,96,0.00,,,0.00,weatherlink.com 1.10,2013-05-11 08:35:00,
2013-05-11 04:50:00,44.7,44.0,29.91,West,281,5.0,7.0,96,0.00,,,0.00,weatherlink.com 1.10,2013-05-11 08:50:00,
2013-05-11 05:05:00,44.8,44.0,29.92,WNW,288,3.0,7.0,95,0.00,,,0.00,weatherlink.com 1.10,2013-05-11 09:05:00,
2013-05-11 05:20:00,44.9,44.0,29.91,West,281,3.0,7.0,95,0.00,,,0.00,weatherlink.com 1.10,2013-05-11 09:20:00,
2013-05-11 05:36:00,44.8,44.0,29.91,West,276,3.0,8.0,95,0.00,,,0.00,weatherlink.com 1.10,2013-05-11 09:36:00,
2013-05-11 05:51:00,44.7,43.0,29.91,West,281,5.0,6.0,95,0.00,,,0.00,weatherlink.com 1.10,2013-05-11 09:51:00,
2013-05-11 06:06:00,44.6,43.0,29.91,West,274,4.0,5.0,95,0.00,,,0.00,weatherlink.com 1.10,2013-05-11 10:06:00,
2013-05-11 06:21:00,44.6,43.0,29.91,WNW,284,5.0,6.0,95,0.00,,,0.00,weatherlink.com 1.10,2013-05-11 10:21:00,
2013-05-11 06:36:00,44.5,43.0,29.91,WNW,283,3.0,6.0,95,0.00,,,0.00,weatherlink.com 1.10,2013-05-11 10:36:00,
2013-05-11 06:51:00,44.5,43.0,29.90,WNW,301,4.0,5.0,95,0.00,,,0.00,weatherlink.com 1.10,2013-05-11 10:51:00,
2013-05-11 07:06:00,44.5,43.0,29.91,West,278,4.0,9.0,95,0.00,,,0.00,weatherlink.com 1.10,2013-05-11 11:06:00,
2013-05-11 07:21:00,44.5,43.0,29.90,WNW,288,5.0,8.0,94,0.00,,,0.00,weatherlink.com 1.10,2013-05-11 11:21:00,
2013-05-11 07:36:00,44.4,43.0,29.90,North,8,3.0,8.0,93,0.00,,,0.00,weatherlink.com 1.10,2013-05-11 11:36:00,
2013-05-11 07:51:00,44.4,43.0,29.90,WNW,292,3.0,7.0,93,0.00,,,0.00,weatherlink.com 1.10,2013-05-11 11:51:00,
2013-05-11 08:06:00,44.2,43.0,29.91,WNW,294,3.0,7.0,94,0.00,,,0.00,weatherlink.com 1.10,2013-05-11 12:06:00,
2013-05-11 08:21:00,44.2,43.0,29.91,WNW,288,3.0,7.0,94,0.00,,,0.00,weatherlink.com 1.10,2013-05-11 12:21:00,
2013-05-11 08:36:00,44.2,43.0,29.91,WNW,282,4.0,10.0,94,0.00,,,0.00,weatherlink.com 1.10,2013-05-11 12:36:00,
2013-05-11 08:51:00,44.2,42.0,29.91,NW,307,6.0,6.0,93,0.00,,,0.00,weatherlink.com 1.10,2013-05-11 12:51:00,
2013-05-11 09:06:00,44.4,43.0,29.91,West,281,5.0,9.0,93,0.00,,,0.00,weatherlink.com 1.10,2013-05-11 13:06:00,
2013-05-11 09:21:00,44.2,42.0,29.91,WSW,258,4.0,7.0,93,0.00,,,0.00,weatherlink.com 1.10,2013-05-11 13:21:00,
2013-05-11 09:36:00,44.2,43.0,29.91,WNW,303,3.0,8.0,94,0.00,,,0.00,weatherlink.com 1.10,2013-05-11 13:36:00,
2013-05-11 09:51:00,44.5,43.0,29.90,West,262,3.0,6.0,94,0.00,,,0.00,weatherlink.com 1.10,2013-05-11 13:51:00,
2013-05-11 10:06:00,44.7,43.0,29.90,West,259,1.0,5.0,94,0.00,,,0.00,weatherlink.com 1.10,2013-05-11 14:06:00,
2013-05-11 10:21:00,45.2,44.0,29.90,SW,235,2.0,5.0,94,0.00,,,0.00,weatherlink.com 1.10,2013-05-11 14:21:00,
2013-05-11 10:36:00,45.3,43.0,29.90,SW,235,6.0,8.0,93,0.00,,,0.00,weatherlink.com 1.10,2013-05-11 14:36:00,
2013-05-11 10:51:00,45.7,44.0,29.91,WSW,243,4.0,7.0,93,0.00,,,0.00,weatherlink.com 1.10,2013-05-11 14:51:00,
2013-05-11 11:06:00,45.6,44.0,29.91,West,270,9.0,10.0,92,0.00,,,0.00,weatherlink.com 1.10,2013-05-11 15:06:00,
2013-05-11 11:21:00,46.0,44.0,29.91,SW,219,8.0,10.0,93,0.00,,,0.00,weatherlink.com 1.10,2013-05-11 15:21:00,
2013-05-11 11:36:00,46.1,44.0,29.90,SW,231,4.0,10.0,92,0.00,,,0.00,weatherlink.com 1.10,2013-05-11 15:36:00,
2013-05-11 11:51:00,46.3,44.0,29.90,SW,215,7.0,10.0,91,0.00,,,0.00,weatherlink.com 1.10,2013-05-11 15:51:00,
2013-05-11 12:06:00,46.5,44.0,29.90,WSW,240,7.0,11.0,91,0.00,,,0.00,weatherlink.com 1.10,2013-05-11 16:06:00,
2013-05-11 12:21:00,46.8,45.0,29.90,SSW,210,7.0,11.0,92,0.00,,,0.00,weatherlink.com 1.10,2013-05-11 16:21:00,
2013-05-11 12:36:00,47.2,45.0,29.89,SW,230,5.0,9.0,90,0.00,,,0.00,weatherlink.com 1.10,2013-05-11 16:36:00,
2013-05-11 12:51:00,48.5,45.0,29.88,SSW,212,6.0,10.0,88,0.00,,,0.00,weatherlink.com 1.10,2013-05-11 16:51:00,
2013-05-11 13:06:00,49.7,46.0,29.87,West,271,4.0,10.0,86,0.00,,,0.00,weatherlink.com 1.10,2013-05-11 17:06:00,
2013-05-11 13:21:00,51.2,47.0,29.86,WSW,243,2.0,11.0,85,0.00,,,0.00,weatherlink.com 1.10,2013-05-11 17:21:00,
2013-05-11 13:36:00,52.6,48.0,29.86,SSE,162,8.0,13.0,83,0.00,,,0.00,weatherlink.com 1.10,2013-05-11 17:36:00,
2013-05-11 13:51:00,53.3,48.0,29.86,SSW,203,8.0,17.0,82,0.00,,,0.00,weatherlink.com 1.10,2013-05-11 17:51:00,
2013-05-11 14:07:00,53.3,48.0,29.85,South,181,12.0,19.0,83,0.00,,,0.00,weatherlink.com 1.10,2013-05-11 18:07:00,
2013-05-11 14:22:00,54.3,49.0,29.85,SSW,205,12.0,17.0,81,0.00,,,0.00,weatherlink.com 1.10,2013-05-11 18:22:00,
2013-05-11 14:37:00,53.6,48.0,29.85,SSE,167,4.0,14.0,81,0.00,,,0.00,weatherlink.com 1.10,2013-05-11 18:37:00,
2013-05-11 14:52:00,53.4,48.0,29.85,SW,219,7.0,13.0,82,0.00,,,0.00,weatherlink.com 1.10,2013-05-11 18:52:00,
2013-05-11 15:07:00,52.8,49.0,29.85,SSW,193,6.0,12.0,86,0.00,,,0.00,weatherlink.com 1.10,2013-05-11 19:07:00,
2013-05-11 15:22:00,52.0,49.0,29.85,WSW,240,7.0,11.0,88,0.01,,,0.01,weatherlink.com 1.10,2013-05-11 19:22:00,
2013-05-11 15:37:00,52.0,49.0,29.85,SW,221,6.0,11.0,90,0.01,,,0.01,weatherlink.com 1.10,2013-05-11 19:37:00,
2013-05-11 15:52:00,52.5,50.0,29.84,SW,217,8.0,10.0,90,0.01,,,0.01,weatherlink.com 1.10,2013-05-11 19:52:00,
2013-05-11 16:07:00,55.0,52.0,29.83,SW,217,10.0,16.0,89,0.01,,,0.01,weatherlink.com 1.10,2013-05-11 20:07:00,
2013-05-11 16:22:00,56.1,52.0,29.82,SSW,207,6.0,15.0,85,0.00,,,0.01,weatherlink.com 1.10,2013-05-11 20:22:00,
2013-05-11 16:37:00,53.4,47.0,29.86,WNW,288,21.0,35.0,80,0.00,,,0.01,weatherlink.com 1.10,2013-05-11 20:37:00,
2013-05-11 16:52:00,44.4,41.0,29.89,NW,311,8.0,26.0,89,0.07,,,0.08,weatherlink.com 1.10,2013-05-11 20:52:00,
2013-05-11 17:07:00,43.3,40.0,29.89,NW,311,12.0,21.0,89,0.10,,,0.11,weatherlink.com 1.10,2013-05-11 21:07:00,
2013-05-11 17:22:00,44.0,40.0,29.89,WNW,301,6.0,16.0,87,0.10,,,0.11,weatherlink.com 1.10,2013-05-11 21:22:00,
2013-05-11 17:37:00,46.1,41.0,29.89,WNW,298,2.0,16.0,83,0.09,,,0.11,weatherlink.com 1.10,2013-05-11 21:37:00,
2013-05-11 17:52:00,46.7,41.0,29.90,WNW,298,11.0,18.0,79,0.03,,,0.11,weatherlink.com 1.10,2013-05-11 21:52:00,
2013-05-11 18:07:00,47.5,40.0,29.91,WNW,302,7.0,21.0,74,0.00,,,0.11,weatherlink.com 1.10,2013-05-11 22:07:00,
2013-05-11 18:22:00,48.1,39.0,29.91,WNW,300,4.0,15.0,71,0.00,,,0.11,weatherlink.com 1.10,2013-05-11 22:22:00,
2013-05-11 18:37:00,48.5,40.0,29.91,WNW,303,9.0,12.0,72,0.00,,,0.11,weatherlink.com 1.10,2013-05-11 22:37:00,
2013-05-11 18:52:00,48.9,38.0,29.92,NW,314,7.0,16.0,67,0.00,,,0.11,weatherlink.com 1.10,2013-05-11 22:52:00,
2013-05-11 19:07:00,48.5,38.0,29.93,NNW,340,7.0,16.0,68,0.00,,,0.11,weatherlink.com 1.10,2013-05-11 23:07:00,
2013-05-11 19:22:00,48.2,38.0,29.93,NW,312,9.0,16.0,69,0.00,,,0.11,weatherlink.com 1.10,2013-05-11 23:22:00,
2013-05-11 19:37:00,48.3,38.0,29.94,NNW,333,9.0,14.0,68,0.00,,,0.11,weatherlink.com 1.10,2013-05-11 23:37:00,
2013-05-11 19:52:00,48.0,37.0,29.95,West,281,6.0,15.0,65,0.00,,,0.11,weatherlink.com 1.10,2013-05-11 23:52:00,
2013-05-11 20:07:00,47.7,36.0,29.95,NW,307,3.0,10.0,65,0.00,,,0.11,weatherlink.com 1.10,2013-05-12 00:07:00,
2013-05-11 20:22:00,47.4,36.0,29.95,NW,309,6.0,12.0,65,0.00,,,0.11,weatherlink.com 1.10,2013-05-12 00:22:00,
2013-05-11 20:37:00,47.3,36.0,29.95,NW,312,4.0,9.0,66,0.00,,,0.11,weatherlink.com 1.10,2013-05-12 00:37:00,
2013-05-11 20:52:00,46.9,36.0,29.96,WNW,293,2.0,8.0,67,0.00,,,0.11,weatherlink.com 1.10,2013-05-12 00:52:00,
2013-05-11 21:07:00,46.8,35.0,29.96,NW,314,5.0,11.0,65,0.00,,,0.11,weatherlink.com 1.10,2013-05-12 01:07:00,
2013-05-11 21:22:00,46.7,35.0,29.98,WNW,288,4.0,9.0,64,0.00,,,0.11,weatherlink.com 1.10,2013-05-12 01:22:00,
2013-05-11 21:37:00,46.3,34.0,29.98,NW,323,9.0,12.0,63,0.00,,,0.11,weatherlink.com 1.10,2013-05-12 01:37:00,
2013-05-11 21:52:00,45.5,35.0,29.98,WNW,287,1.0,6.0,67,0.00,,,0.11,weatherlink.com 1.10,2013-05-12 01:52:00,
2013-05-11 22:07:00,44.5,35.0,29.99,NW,316,4.0,6.0,69,0.00,,,0.11,weatherlink.com 1.10,2013-05-12 02:07:00,
2013-05-11 22:22:00,44.0,35.0,29.99,WSW,256,1.0,3.0,70,0.00,,,0.11,weatherlink.com 1.10,2013-05-12 02:22:00,
2013-05-11 22:37:00,43.3,35.0,30.00,WNW,288,4.0,6.0,72,0.00,,,0.11,weatherlink.com 1.10,2013-05-12 02:37:00,
2013-05-11 22:52:00,43.0,35.0,30.00,WNW,295,3.0,6.0,72,0.00,,,0.11,weatherlink.com 1.10,2013-05-12 02:52:00,
2013-05-11 23:07:00,42.2,35.0,30.00,West,275,1.0,1.0,75,0.00,,,0.11,weatherlink.com 1.10,2013-05-12 03:07:00,
2013-05-11 23:23:00,41.0,35.0,30.00,West,266,0.0,2.0,79,0.00,,,0.11,weatherlink.com 1.10,2013-05-12 03:23:00,
2013-05-11 23:38:00,40.3,35.0,30.00,WSW,245,0.0,2.0,81,0.00,,,0.11,weatherlink.com 1.10,2013-05-12 03:38:00,
2013-05-11 23:53:00,39.6,35.0,30.00,WSW,238,1.0,2.0,83,0.00,,,0.11,weatherlink.com 1.10,2013-05-12 03:53:00,